[[{"header":{"parameterUnit":"m.s-1","parameterCategory":1,"la1":30.2991,"la2":30.254,"lo1":-89.0895,"lo2":-89.0444,"dy":0.0017,"dx":0.0017,"nx":28,"ny":28,"refTime":"2025-01-10T03:00:00:Z","depth":0,"parameterNumber":2,"parameterNumberName":"U-component_of_WINDS"},"data":[0,0,0,0,0,0,0,0,0,0,0,0,0,0,0,0,0,0,0,0,0,0,0,0,0,0,0,0,0,0,0,0,0,0,0,0,0,0,0,0,0,0,0,0,0,0,0,0,0,0,0,0,0,0,0,0,0,0,-1.4706,-1.4707,0,-1.4761,-1.4761,-1.4762,-1.4764,-1.4763,-1.4763,-1.4762,-1.4816,-1.4818,-1.482,0,0,0,0,0,0,0,0,0,0,0,0,0,-1.4601,-1.4603,-1.4706,-1.4707,-1.4708,-1.4761,-1.4761,-1.4762,-1.4764,-1.4763,-1.4763,-1.4762,-1.4815,-1.4817,-1.482,0,0,0,0,0,0,0,0,0,0,0,0,0,-1.465,-1.4604,-1.4706,-1.4715,-1.4717,-1.4761,-1.4761,-1.4762,-1.4764,-1.4763,-1.4762,-1.4762,-1.4814,-1.4817,-1.482,-1.4858,0,0,-1.4829,-1.4831,0,0,0,0,0,0,0,0,-1.4648,-1.4654,-1.4713,-1.4715,-1.4716,-1.4755,-1.4744,-1.4794,-1.4765,-1.4746,-1.4762,-1.4761,-1.4796,-1.48,-1.4813,-1.4861,-1.4863,-1.483,-1.4831,-1.4833,-1.4834,0,0,0,0,0,0,0,-1.4644,-1.4652,-1.4728,-1.4714,-1.4716,-1.4715,-1.4721,-1.4754,-1.4776,-1.4748,-1.4748,-1.4754,-1.4797,-1.481,-1.4814,-1.4864,-1.4829,-1.4832,-1.4834,-1.4835,-1.4944,-1.4945,0,0,0,0,0,0,-1.4639,-1.4649,-1.4726,-1.4729,-1.4679,-1.4718,-1.4725,-1.4743,-1.4775,-1.4779,-1.4755,-1.4754,-1.4805,-1.481,-1.4816,-1.4861,-1.4833,-1.4836,-1.4837,-1.4943,-1.4944,-1.4945,0,0,0,0,0,0,-1.4637,-1.4646,-1.4724,-1.4689,-1.4699,-1.4721,-1.4742,-1.4745,-1.4758,-1.4781,-1.4785,-1.4765,-1.4804,-1.4812,-1.4847,-1.4863,-1.4837,-1.484,-1.4942,-1.4943,-1.4945,-1.4954,0,0,0,0,0,0,-1.4634,-1.4645,-1.4661,-1.469,-1.4701,-1.4756,-1.4743,-1.4747,-1.4764,-1.4763,-1.4791,-1.4795,-1.4804,-1.4843,-1.485,-1.4867,-1.4842,-1.494,-1.4942,-1.4944,-1.4952,-1.4955,-1.4958,0,0,0,0,0,-1.463,-1.4661,-1.4662,-1.4671,-1.4721,-1.4757,-1.4763,-1.4774,-1.4765,-1.478,-1.4795,-1.4794,-1.4861,-1.4847,-1.4855,-1.4873,-1.4939,-1.4942,-1.4944,-1.4951,-1.4955,-1.4958,0,0,0,0,0,0,-1.4633,-1.4665,-1.4666,-1.4707,-1.4729,-1.4757,-1.4776,-1.4778,-1.4802,-1.4801,-1.4812,-1.4819,-1.4854,-1.4867,-1.4851,-1.4911,-1.4899,-1.4903,-1.4901,-1.4905,-1.4908,-1.4903,-1.4845,0,0,0,0,0,-1.4638,-1.4665,-1.4692,-1.4725,-1.4736,-1.4754,-1.477,-1.4777,-1.48,-1.4809,-1.4826,-1.4848,-1.4873,-1.489,-1.4915,-1.4954,-1.4959,-1.497,-1.4973,-1.4976,-1.4979,-1.4999,-1.5004,-1.4953,-1.4953,-1.4953,0,0,-1.465,-1.4671,-1.4687,-1.4726,-1.4744,-1.4771,-1.4762,-1.4791,-1.481,-1.4813,-1.4848,-1.4861,-1.4886,-1.4923,-1.494,-1.4935,-1.4994,-1.4979,-1.4981,-1.4983,-1.5002,-1.5007,-1.5011,-1.4955,-1.4955,-1.4954,0,0,-1.4684,-1.4703,-1.4732,-1.475,-1.4777,-1.4789,-1.4796,-1.4824,-1.4833,-1.4868,-1.487,-1.4893,-1.4937,-1.4954,-1.4969,-1.5009,-1.5008,-1.5016,-1.5032,-1.5052,-1.5056,-1.5059,-1.5072,-1.5077,-1.502,-1.502,-1.502,0,-1.4694,-1.4735,-1.4747,-1.4776,-1.4792,-1.4796,-1.4826,-1.4842,-1.4876,-1.4887,-1.4881,-1.4936,-1.4953,-1.4993,-1.5003,-1.5015,-1.5022,-1.5013,-1.5054,-1.5058,-1.5062,-1.5074,-1.5079,-1.502,-1.502,-1.502,-1.502,0,-1.4746,-1.4774,-1.4794,-1.4827,-1.4846,-1.4875,-1.489,-1.4908,-1.4913,-1.4925,-1.496,-1.498,-1.5009,-1.5019,-1.5024,-1.506,-1.5056,-1.5052,-1.504,-1.5067,-1.5079,-1.5084,-1.5021,-1.5021,-1.5021,-1.5021,0,0,-1.4783,-1.4821,-1.4829,-1.4843,-1.4873,-1.4895,-1.4923,-1.4952,-1.4966,-1.4989,-1.5012,-1.5049,-1.5045,-1.5062,-1.5068,-1.5086,-1.5114,-1.5079,-1.508,-1.5084,-1.5154,-1.5156,-1.5161,-1.5114,-1.5115,-1.5116,-1.5151,0,-1.4819,-1.487,-1.4882,-1.4925,-1.4951,-1.4955,-1.4979,-1.4999,-1.5011,-1.5034,-1.5047,-1.5072,-1.5066,-1.5076,-1.5093,-1.5107,-1.5128,-1.5105,-1.5135,-1.5136,-1.5127,-1.5167,-1.517,-1.5202,-1.5156,-1.5157,-1.5157,0,-1.4868,-1.4893,-1.4939,-1.4965,-1.4976,-1.4998,-1.5024,-1.5046,-1.5069,-1.5076,-1.5094,-1.5099,-1.5127,-1.5114,-1.5153,-1.5137,-1.515,-1.5158,-1.516,-1.5162,-1.5147,-1.517,-1.5213,-1.5217,-1.5165,-1.5164,-1.5164,0,-1.4889,-1.4933,-1.4966,-1.4979,-1.501,-1.5025,-1.5038,-1.506,-1.5076,-1.5099,-1.5109,-1.5135,-1.5149,-1.5168,-1.5179,-1.5169,-1.5216,-1.5205,-1.5222,-1.5222,-1.5231,-1.523,-1.5275,-1.5241,-1.5241,-1.5241,-1.5241,0,-1.4928,-1.4955,-1.4976,-1.4996,-1.5027,-1.5039,-1.5069,-1.5083,-1.5102,-1.5124,-1.5129,-1.5149,-1.5163,-1.5185,-1.5194,-1.5223,-1.523,-1.5236,-1.5237,-1.5235,-1.5234,-1.5242,-1.524,-1.5242,-1.5242,-1.5242,-1.5242,0,-1.4956,-1.4971,-1.5007,-1.5033,-1.5041,-1.5062,-1.5084,-1.5103,-1.5115,-1.5143,-1.515,-1.5168,-1.5194,-1.5207,-1.524,-1.5245,-1.5278,-1.528,-1.5271,-1.5271,-1.5287,-1.5285,-1.5339,-1.5346,-1.5308,-1.5308,-1.5309,0,-1.4979,-1.5001,-1.5029,-1.5045,-1.5058,-1.5083,-1.51,-1.5112,-1.5129,-1.5156,-1.5171,-1.5198,-1.522,-1.5261,-1.5276,-1.5301,-1.5302,-1.5319,-1.5305,-1.5301,-1.53,-1.5298,-1.53,-1.5321,-1.5321,-1.5321,-1.5322,0,-1.5018,-1.5024,-1.5048,-1.5075,-1.5094,-1.5115,-1.5136,-1.5148,-1.5164,-1.5182,-1.5209,-1.5226,-1.5259,-1.5284,-1.531,-1.5323,-1.5324,-1.5326,-1.5331,-1.5328,-1.5321,-1.5324,-1.5276,-1.5324,-1.5324,-1.5324,-1.5324,-1.5324,-1.5044,-1.5063,-1.5085,-1.5111,-1.5128,-1.5148,-1.5167,-1.5181,-1.5204,-1.5232,-1.5238,-1.5266,-1.5287,-1.5321,-1.5335,-1.5356,-1.5352,-1.536,-1.5362,-1.5363,-1.5363,-1.5319,-1.5361,-1.5361,-1.5361,-1.5361,-1.5361,0,-1.5082,-1.5097,-1.5121,-1.515,-1.517,-1.5171,-1.5193,-1.521,-1.5235,-1.5255,-1.5276,-1.5306,-1.5331,-1.5348,-1.5373,-1.5387,-1.5388,-1.5393,-1.5391,-1.5394,-1.5366,-1.5358,-1.5391,-1.5391,-1.5391,-1.5391,-1.5391,-1.5391,-1.5104,-1.5136,-1.5145,-1.5184,-1.5198,-1.5226,-1.5239,-1.5256,-1.5272,-1.5306,-1.5327,-1.5338,-1.5356,-1.5382,-1.5405,-1.5409,-1.5417,-1.5422,-1.5426,-1.5399,-1.5396,-1.5393,-1.5386,-1.5424,-1.5424,-1.5452,-1.5452,-1.5453]},{"header":{"parameterUnit":"m.s-1","parameterCategory":1,"la1":30.2991,"la2":30.254,"lo1":-89.0895,"lo2":-89.0444,"dy":0.0017,"dx":0.0017,"nx":28,"ny":28,"refTime":"2025-01-10T03:00:00:Z","depth":0,"parameterNumber":3,"parameterNumberName":"V-component_of_WINDS"},"data":[0,0,0,0,0,0,0,0,0,0,0,0,0,0,0,0,0,0,0,0,0,0,0,0,0,0,0,0,0,0,0,0,0,0,0,0,0,0,0,0,0,0,0,0,0,0,0,0,0,0,0,0,0,0,0,0,0,0,-1.7457,-1.7458,0,-1.7496,-1.7496,-1.7496,-1.7504,-1.7503,-1.7503,-1.7503,-1.754,-1.7541,-1.7543,0,0,0,0,0,0,0,0,0,0,0,0,0,-1.7388,-1.7389,-1.7457,-1.7458,-1.7458,-1.7496,-1.7496,-1.7497,-1.7504,-1.7503,-1.7503,-1.7503,-1.754,-1.7541,-1.7543,0,0,0,0,0,0,0,0,0,0,0,0,0,-1.7421,-1.739,-1.7457,-1.7466,-1.7467,-1.7495,-1.7496,-1.7497,-1.7504,-1.7503,-1.7503,-1.7502,-1.7539,-1.7541,-1.7543,-1.7564,0,0,-1.7549,-1.755,0,0,0,0,0,0,0,0,-1.7419,-1.7424,-1.7464,-1.7466,-1.7467,-1.7494,-1.7485,-1.7519,-1.7504,-1.749,-1.7503,-1.7502,-1.7525,-1.7528,-1.7536,-1.7566,-1.7567,-1.7549,-1.755,-1.7551,-1.7552,0,0,0,0,0,0,0,-1.7417,-1.7422,-1.7472,-1.7465,-1.7467,-1.7468,-1.7472,-1.7492,-1.751,-1.7491,-1.7492,-1.7496,-1.7526,-1.7534,-1.7537,-1.7568,-1.7549,-1.7551,-1.7552,-1.7553,-1.7615,-1.7616,0,0,0,0,0,0,-1.7413,-1.742,-1.7471,-1.7474,-1.7442,-1.7469,-1.7474,-1.7486,-1.7509,-1.7513,-1.7497,-1.7496,-1.7531,-1.7535,-1.7539,-1.7564,-1.7551,-1.7553,-1.7554,-1.7615,-1.7615,-1.7616,0,0,0,0,0,0,-1.7412,-1.7418,-1.747,-1.7447,-1.7454,-1.7471,-1.7484,-1.7487,-1.7496,-1.7514,-1.7517,-1.7502,-1.7531,-1.7536,-1.7557,-1.7565,-1.7554,-1.7555,-1.7614,-1.7615,-1.7616,-1.7615,0,0,0,0,0,0,-1.741,-1.7417,-1.7426,-1.7447,-1.7455,-1.7488,-1.7485,-1.7488,-1.7499,-1.7499,-1.752,-1.7523,-1.7531,-1.7555,-1.7559,-1.7568,-1.7557,-1.7613,-1.7614,-1.7615,-1.7614,-1.7616,-1.7617,0,0,0,0,0,-1.7407,-1.7424,-1.7426,-1.7433,-1.7466,-1.7489,-1.7493,-1.7503,-1.75,-1.7508,-1.752,-1.7522,-1.7564,-1.7557,-1.7562,-1.7571,-1.7613,-1.7614,-1.7615,-1.7614,-1.7615,-1.7617,0,0,0,0,0,0,-1.7403,-1.7427,-1.743,-1.7454,-1.747,-1.749,-1.7501,-1.7505,-1.7521,-1.752,-1.7531,-1.7536,-1.7557,-1.7566,-1.7558,-1.7592,-1.7588,-1.759,-1.7585,-1.7587,-1.7588,-1.7585,-1.7559,0,0,0,0,0,-1.7405,-1.7422,-1.7442,-1.7462,-1.7469,-1.7484,-1.7494,-1.75,-1.7516,-1.7523,-1.7536,-1.7551,-1.7567,-1.7577,-1.7594,-1.7616,-1.762,-1.7625,-1.7626,-1.7627,-1.7628,-1.764,-1.7642,-1.762,-1.762,-1.762,0,0,-1.7409,-1.7424,-1.7434,-1.7461,-1.7474,-1.749,-1.7489,-1.7507,-1.7519,-1.7525,-1.7546,-1.7556,-1.7574,-1.7595,-1.7605,-1.7604,-1.7635,-1.7628,-1.7629,-1.763,-1.7641,-1.7643,-1.7645,-1.762,-1.762,-1.762,0,0,-1.7425,-1.7439,-1.7456,-1.7469,-1.7488,-1.7497,-1.7501,-1.7521,-1.7528,-1.755,-1.7554,-1.7569,-1.7597,-1.7609,-1.7618,-1.7638,-1.764,-1.7643,-1.7648,-1.7659,-1.7661,-1.7663,-1.7669,-1.7671,-1.7644,-1.7644,-1.7644,0,-1.7427,-1.7453,-1.7464,-1.7482,-1.7493,-1.7499,-1.7516,-1.7528,-1.7551,-1.7558,-1.7556,-1.7591,-1.7603,-1.7627,-1.7632,-1.764,-1.7644,-1.764,-1.766,-1.7662,-1.7664,-1.7669,-1.7672,-1.7645,-1.7645,-1.7644,-1.7644,0,-1.7454,-1.7472,-1.7484,-1.7506,-1.7519,-1.7536,-1.7548,-1.7559,-1.7565,-1.7574,-1.7595,-1.761,-1.7629,-1.7635,-1.764,-1.766,-1.7658,-1.7658,-1.7654,-1.7666,-1.7671,-1.7673,-1.7645,-1.7645,-1.7645,-1.7645,0,0,-1.7468,-1.7497,-1.75,-1.751,-1.7532,-1.7545,-1.7562,-1.7581,-1.7589,-1.7605,-1.7619,-1.7642,-1.7642,-1.7653,-1.766,-1.767,-1.7683,-1.7668,-1.7669,-1.767,-1.7704,-1.7703,-1.7705,-1.7685,-1.7685,-1.7686,-1.7702,0,-1.7486,-1.7517,-1.7527,-1.7552,-1.7568,-1.7574,-1.7589,-1.7603,-1.7612,-1.7626,-1.7636,-1.7653,-1.7652,-1.7658,-1.7668,-1.7679,-1.769,-1.7678,-1.7697,-1.7697,-1.7691,-1.7709,-1.7708,-1.7723,-1.7704,-1.7705,-1.7705,0,-1.751,-1.7526,-1.7553,-1.7572,-1.7579,-1.7592,-1.7609,-1.7623,-1.7639,-1.7645,-1.7657,-1.7663,-1.7679,-1.7675,-1.7698,-1.769,-1.7698,-1.7704,-1.7705,-1.7707,-1.7701,-1.7709,-1.7728,-1.7729,-1.7709,-1.7708,-1.7708,0,-1.7516,-1.7545,-1.7564,-1.7572,-1.7595,-1.7604,-1.7613,-1.7629,-1.7639,-1.7654,-1.7661,-1.7678,-1.7687,-1.7699,-1.7709,-1.7705,-1.7731,-1.7728,-1.7735,-1.7735,-1.774,-1.7739,-1.7759,-1.7747,-1.7747,-1.7747,-1.7747,0,-1.7534,-1.755,-1.7567,-1.7579,-1.7597,-1.7608,-1.7625,-1.7635,-1.7648,-1.7662,-1.7669,-1.7681,-1.7693,-1.7707,-1.7715,-1.7732,-1.7736,-1.7741,-1.7743,-1.774,-1.7739,-1.7745,-1.7744,-1.7747,-1.7747,-1.7747,-1.7747,0,-1.7543,-1.7556,-1.7577,-1.7597,-1.7602,-1.7614,-1.763,-1.7641,-1.7651,-1.7668,-1.7672,-1.7687,-1.7703,-1.7714,-1.7735,-1.7741,-1.7759,-1.7761,-1.7754,-1.7754,-1.7761,-1.776,-1.7784,-1.7788,-1.7774,-1.7774,-1.7774,0,-1.7553,-1.7566,-1.7586,-1.7596,-1.7606,-1.7621,-1.7632,-1.7643,-1.7654,-1.7672,-1.7681,-1.7698,-1.7712,-1.7738,-1.775,-1.7766,-1.7768,-1.7775,-1.777,-1.7767,-1.7767,-1.7766,-1.7766,-1.7776,-1.7776,-1.7776,-1.7776,0,-1.7569,-1.7575,-1.759,-1.7607,-1.762,-1.7634,-1.7648,-1.7655,-1.7669,-1.768,-1.7697,-1.7708,-1.773,-1.7746,-1.7763,-1.7772,-1.7776,-1.7777,-1.778,-1.7777,-1.7772,-1.7774,-1.7755,-1.7777,-1.7777,-1.7777,-1.7776,-1.7776,-1.7579,-1.7589,-1.7606,-1.7622,-1.7634,-1.7647,-1.7658,-1.7669,-1.7684,-1.7702,-1.7708,-1.7725,-1.774,-1.7763,-1.7773,-1.7786,-1.7786,-1.7789,-1.779,-1.7791,-1.779,-1.777,-1.7789,-1.7789,-1.7789,-1.7789,-1.7789,0,-1.7594,-1.7605,-1.762,-1.7639,-1.7652,-1.7655,-1.7671,-1.7681,-1.7697,-1.771,-1.7724,-1.7743,-1.7759,-1.7772,-1.7788,-1.7797,-1.7799,-1.78,-1.7799,-1.7801,-1.779,-1.7786,-1.7798,-1.7798,-1.7798,-1.7798,-1.7798,-1.7798,-1.7604,-1.7622,-1.7629,-1.7653,-1.7664,-1.7681,-1.769,-1.7701,-1.7712,-1.7733,-1.7747,-1.7755,-1.7769,-1.7786,-1.78,-1.7804,-1.7809,-1.781,-1.7814,-1.7803,-1.7802,-1.7801,-1.7797,-1.7811,-1.7811,-1.7823,-1.7824,-1.7824]}]]